This is the latest recevied weather packets stored in our database for station/object EA1EXV-11. If no packets are shown the sender has not sent any weather packets the latest 10 day(s).
| Time | Temp. | Humidity | Pressure | Rain* | Wind** | Luminosity | Snow |
|---|---|---|---|---|---|---|---|
| 1778068224 | 16.11° C | 77% | 1017.3 hPa | - | - | - | - |
| 1778067324 | 15.56° C | 78% | 1017.5 hPa | - | - | - | - |
| 1778066424 | 15.56° C | 79% | 1017.6 hPa | - | - | - | - |
| 1778065524 | 15.56° C | 80% | 1017.6 hPa | - | - | - | - |
| 1778064624 | 14.44° C | 80% | 1017.6 hPa | - | - | - | - |
| 1778063724 | 13.33° C | 80% | 1017.7 hPa | - | - | - | - |
| 1778062824 | 12.78° C | 81% | 1017.7 hPa | - | - | - | - |
| 1778061924 | 14.44° C | 81% | 1017.5 hPa | - | - | - | - |
| 1778061024 | 14.44° C | 81% | 1017.4 hPa | - | - | - | - |
| 1778060123 | 19.44° C | 82% | 1017.3 hPa | - | - | - | - |
| 1778059223 | 16.11° C | 83% | 1017.3 hPa | - | - | - | - |
| 1778058323 | 13.33° C | 84% | 1017.2 hPa | - | - | - | - |
| 1778057423 | 14.44° C | 84% | 1017.2 hPa | - | - | - | - |
| 1778056523 | 13.89° C | 84% | 1017.2 hPa | - | - | - | - |
| 1778055623 | 13.33° C | 85% | 1017.3 hPa | - | - | - | - |
| 1778054723 | 11.67° C | 85% | 1017.3 hPa | - | - | - | - |
| 1778053823 | 11.67° C | 85% | 1017.2 hPa | - | - | - | - |
| 1778052923 | 11.11° C | 85% | 1017.2 hPa | - | - | - | - |
| 1778052023 | 10.56° C | 85% | 1017.2 hPa | - | - | - | - |
| 1778051123 | 10° C | 85% | 1017.1 hPa | - | - | - | - |
| 1778050222 | 10° C | 85% | 1017.1 hPa | - | - | - | - |
| 1778049322 | 9.44° C | 84% | 1017 hPa | - | - | - | - |
| 1778048422 | 8.89° C | 84% | 1016.9 hPa | - | - | - | - |
| 1778047522 | 8.33° C | 85% | 1016.8 hPa | - | - | - | - |
| 1778046622 | 8.33° C | 84% | 1016.8 hPa | - | - | - | - |
* Rain since midnight (hover to see other rain measurements)
** Current wind speed in m/s (hover to see current wind gust speed)